Voltar ao catálogo

STARLINK-11468

AtivoComunicaçõesVLEO
NORAD 62221·PAYLOAD·🇺🇸 United States

Lançado Dec 5, 2024 de Vandenberg Space Force Base

Loading…

Próximas Passagens (próximas 24 horas)

TLE

AtualizadoSource: CelesTrak SupGP

Época: Sep 15, 2026, 03:11 UTC

1 62221C 24231D   26258.13312500 -.00065652  00000+0 -54039-3 0  2580
2 62221  53.1575 247.6700 0001180  86.7270 205.5491 15.69760373    11

Acompanhe STARLINK-11468 em tempo real com AllMySat

Download on the App Store